This is the latest recevied weather packets stored in our database for station/object OH6GKW. If no packets are shown the sender has not sent any weather packets the latest 10 day(s).
| Time | Temp. | Humidity | Pressure | Rain* | Wind** | Luminosity | Snow |
|---|---|---|---|---|---|---|---|
| 1777631038 | 13.33° C | 52% | 1014 hPa | 0 mm | - | 660 W/m² | - |
| 1777630727 | 13.33° C | 54% | 1014 hPa | 0 mm | - | 660 W/m² | - |
| 1777630421 | 13.33° C | 55% | 1014.1 hPa | 0 mm | - | 662 W/m² | - |
| 1777630111 | 12.78° C | 55% | 1014.1 hPa | 0 mm | - | 660 W/m² | - |
| 1777629822 | 12.78° C | 55% | 1014.1 hPa | 0 mm | - | 660 W/m² | - |
| 1777629509 | 12.78° C | 56% | 1014.3 hPa | 0 mm | - | 658 W/m² | - |
| 1777629220 | 12.78° C | 55% | 1014.3 hPa | 0 mm | - | 656 W/m² | - |
| 1777628913 | 12.78° C | 55% | 1014.3 hPa | 0 mm | - | 656 W/m² | - |
| 1777628637 | 13.33° C | 55% | 1014.2 hPa | 0 mm | - | 656 W/m² | - |
| 1777628328 | 13.33° C | 55% | 1014.2 hPa | 0 mm | - | 653 W/m² | - |
| 1777628023 | 13.89° C | 54% | 1014.2 hPa | 0 mm | - | 651 W/m² | - |
| 1777627710 | 13.89° C | 54% | 1014.2 hPa | 0 mm | - | 639 W/m² | - |
| 1777627423 | 13.89° C | 55% | 1014.2 hPa | 0 mm | - | 625 W/m² | - |
| 1777627117 | 13.89° C | 54% | 1014.2 hPa | 0 mm | - | 637 W/m² | - |
| 1777626826 | - | - | 1014.5 hPa | 0 mm | - | - | - |
| 1777626517 | - | - | 1014.5 hPa | 0 mm | - | - | - |
| 1777626232 | 12.22° C | 59% | 1014.6 hPa | 0 mm | - | 628 W/m² | - |
| 1777625911 | 12.22° C | 59% | 1014.7 hPa | 0 mm | - | 628 W/m² | - |
| 1777625642 | 12.22° C | 60% | 1014.7 hPa | 0 mm | - | 626 W/m² | - |
| 1777625328 | 12.22° C | 61% | 1014.7 hPa | 0 mm | - | 619 W/m² | - |
| 1777625022 | 11.67° C | 62% | 1014.8 hPa | 0 mm | - | 618 W/m² | - |
| 1777624718 | 11.67° C | 62% | 1014.8 hPa | 0 mm | - | 612 W/m² | - |
| 1777624409 | 11.67° C | 62% | 1014.8 hPa | 0 mm | - | 607 W/m² | - |
| 1777624122 | 11.67° C | 62% | 1015 hPa | 0 mm | - | 600 W/m² | - |
| 1777623813 | 11.67° C | 62% | 1015 hPa | 0 mm | - | 595 W/m² | - |
* Rain since midnight (hover to see other rain measurements)
** Current wind speed in m/s (hover to see current wind gust speed)